Regional Weather Roundup
Issued by NWS Grand Forks, ND

Home | Current Version | Previous Version | Text Only | Print | Product List | Glossary On
Versions: 1 2 3 4 5 6 7 8 9 10 11 12 13 14 15 16 17 18 19 20 21 22 23 24 25 26 27 28 29 30 31 32 33 34 35 36 37 38 39 40 41 42 43 44 45 46 47 48 49 50
000
ASUS43 KFGF 182310
RWRFGF
PRAIRIE TO PINES  WEATHER ROUNDUP
NATIONAL WEATHER SERVICE EASTERN NORTH DAKOTA/GRAND FORKS ND
500 PM CST MON DEC 18 2017

 **SATELLITE DATA USED TO AUGMENT SKY COVER AT AUTOMATED STATIONS**
 *****  WEATHER ACROSS EASTERN NORTH DAKOTA  *****

CITY           SKY/WX    TMP DP  RH WIND       PRES   REMARKS
GRAND FORKS    CLOUDY    34  33  96 NW10      29.55R
GRAND FRKS AFB MOCLDY    34  33  97 W8        29.56R
GRAND FRKS NWS   N/A     32 N/A N/A NW7         N/A
DEVILS LAKE    CLOUDY    33  31  92 W15       29.58R WCI  23
FARGO          CLOUDY    36  33  89 W9        29.59R
WAHPETON ARPT  CLOUDY    36  32  87 W3        29.61R
$$

 ***** WEATHER ACROSS CENTRAL AND WESTERN NORTH DAKOTA  *****

CITY           SKY/WX    TMP DP  RH WIND       PRES   REMARKS
BISMARCK       CLOUDY    44  35  70 NW13      29.63R
MINOT          FAIR      36  31  82 W9        29.61R
JAMESTOWN      CLOUDY    37  32  82 NW10      29.59R
MINOT AFB      FAIR      34  30  86 W12       29.59R
GARRISON         N/A     34  31  88 NW9       29.62R
WILLISTON      CLOUDY    35  25  66 NW10      29.69R
DICKINSON      LGT RAIN  38  35  89 NW16G28   29.63R
HETTINGER      FAIR      38  25  59 W9        29.66R
$$

 *****  OTHER AIRPORT OBSERVATIONS IN OUR AREA  *****

CITY           SKY/WX    TMP DP  RH WIND       PRES   REMARKS
WALHALLA       FAIR      34  34 100 W12       29.49F
GRAFTON AIRPOR MOCLDY    34  32  93 W6        29.53F
VALLEY CITY AR CLOUDY    36  36 100 NW9       29.61R
CANDO          CLOUDY    32  32 100 W17       29.58R WCI  21
CAVALIER APRT  MOCLDY    34  30  86 W8        29.48F
GWINNER          N/A     39  32  75 W8        29.59R
SHEYENNE NWR     N/A     40  33  77 W8        29.95S
ROLLA          FAIR      28  28 100 SW13      29.54R WCI  18
 ***** THE ABOVE OBSERVATIONS ARE NON NWS ARE NOT QUALITY
       CONTROLLED AND MAY MIS-REPORT RAIN FOR SNOW...
$$

  *****  WEATHER ACROSS NORTHERN MINNESOTA  *****

CITY           SKY/WX    TMP DP  RH WIND       PRES   REMARKS
FLAG ISLAND    FAIR      34  30  86 W6        29.44R
WARROAD        LGT SNOW  34  28  80 SW9       29.47R
ROSEAU         MOCLDY    34  28  80 SW8       29.48R
HALLOCK        CLOUDY    34  32  93 W7        29.51S
THF RVR FALLS  FLURRIES  32  30  92 W8        29.54R WCI  25
BAUDETTE       CLOUDY    33  31  92 W9        29.46R
WASKISH        CLOUDY    32  30  93 W13G18    29.49R WCI  22
CROOKSTON      CLOUDY    34  34 100 NW16      29.55S WCI  23
STEPHEN NDAWN    N/A     34  30  86 W7          N/A
GREENBUSH NDAW   N/A     32  30  93 W8          N/A  WCI  25
$$
  *****  WEATHER ACROSS CENTRAL AND WEST MINNESOTA  *****

CITY           SKY/WX    TMP DP  RH WIND       PRES   REMARKS
FOSSTON        LGT SNOW  30  28  93 W9        29.55R WCI  22
BEMIDJI        LGT SNOW  32  31  96 W13       29.51R WCI  22
PARK RAPIDS    FLURRIES  32  30  92 W13       29.54R WCI  22
ELBOW LAKE     CLOUDY    36  32  84 SW8       29.61S
WADENA         FLURRIES  32  32 100 W10G18    29.57R WCI  24
DETROIT LAKES  CLOUDY    34  34 100 W12       29.58R
MOORHEAD       CLOUDY    36  32  87 W7G18     29.60R
FERGUS FALLS   CLOUDY    36  32  87 W6        29.63R
MORRIS MN      CLOUDY    39  30  70 W3        29.62R
STAPLES        DRIZZLE   32  30  93 SW8       29.57S WCI  25
$$
  *****  WEATHER ELSEWHERE ACROSS MINNESOTA  *****

CITY           SKY/WX    TMP DP  RH WIND       PRES   REMARKS
DULUTH         SNOW      30  29  96 SW14G22   29.52F VSB 1/2 WCI  19
INTRNTL FALLS  CLOUDY    33  30  88 W7        29.45R FOG
ELY            LGT SNOW  30  30 100 SW8       29.46S WCI  23
CLOQUET        LGT SNOW  30  28  93 SW9G17    29.53F WCI  22
WHEATON        FAIR      39  28  65 S5        29.62F
BRAINERD       CLOUDY    33  30  88 SW10      29.57S WCI  25
HIBBING        LGT SNOW  30  29  96 SW7       29.49S VSB 3/4 WCI  23
ALEXANDRIA     CLOUDY    38  29  70 W15       29.60S
SAINT CLOUD    CLOUDY    35  31  85 S8        29.61R
MINNEAPOLIS    CLOUDY    39  32  76 S5        29.65F
$$

  *****  WEATHER ACROSS SOUTH DAKOTA  *****

CITY           SKY/WX    TMP DP  RH WIND       PRES   REMARKS
SIOUX FALLS    MOCLDY    45  28  51 SW6       29.72S
BROOKINGS      FAIR      40  27  59 SW10      29.68R
WATERTOWN      FAIR      39  29  67 SW13      29.64R
HURON          FAIR      46  28  49 W8        29.69R
SISSETON         N/A     43  29  57 W10G21    29.60R
ABERDEEN       FAIR      43  30  60 W8        29.64R
MITCHELL       FAIR      47  28  47 W9        29.73R
PIERRE         FAIR      48  27  44 W9        29.70R
MOBRIDGE       FAIR      46  26  45 W3        29.62R
RAPID CITY     FAIR      54  25  32 NW10      29.76R
$$

  *****  SOME WEATHER IN NEARBY STATES *****

CITY           SKY/WX    TMP DP  RH WIND       PRES   REMARKS
GLASGOW MT     CLOUDY    32  28  85 NW13      29.77R WCI  22
GREAT FALLS MT FAIR      30  24  78 N18G25    29.86R WCI  18
CHEYENNE WY    FAIR      46  23  40 W25G39    29.92R
SCOTTSBLUFF NE FAIR      52  24  33 W18G26    29.89R
OMAHA NE       MOCLDY    51  29  42 S10       29.84S
DES MOINES IA  FAIR      47  30  51 S10       29.84F
DAVENPORT IA   FAIR      45  34  65 SW10      29.87S
CHICAGO IL     FAIR      42  34  73 SW9       29.86S
EAU CLAIRE WI  MOCLDY    34  29  82 S8        29.67F
LA CROSSE WI   FAIR      38  30  73 S12       29.74F
$$

  *****  SOME NATIONAL WEATHER *****

CITY           SKY/WX    TMP DP  RH WIND       PRES   REMARKS
LA GUARDIA NY  MOCLDY    47  35  63 SW7       29.97R
RALEIGH NC     FAIR      50  43  77 CALM      30.06F
ATLANTA GA     MOCLDY    58  55  90 SW6       30.17R
NEW ORLEANS LA MOCLDY    66  65  96 N5        30.18R
OKLAHOMA CITY  FAIR      49  43  80 SE9       30.06F
ALBUQUERQUE NM FAIR      46  29  51 SW7       30.13S
SALT LAKE CITY MOCLDY    43  24  47 NW5       30.24S
LOS ANGELES CA PTSUNNY   67  28  23 W9        30.12S
BOISE ID       CLOUDY    43  28  55 W5        30.18S
SEATTLE WA     LGT RAIN  45  40  82 NE7       30.13F
$$

*** WEATHER ACROSS MANITOBA...SASKATCHEWAN AND ONTARIO ***
                ***ONTARIO***

CITY           SKY/WX    TMP DP  RH WIND       PRES   REMARKS
GERALDTON      CLOUDY    30  28  93 SW14      29.40R WCI  20
THUNDER BAY    CLOUDY    34  30  86 SW6       29.46F
SIOUX LOOKOUT  MOCLDY    30  27  86 W6        29.36R WCI  24
TORONTO        DRIZZLE   37  36  93 SW8       29.81R FOG
BIG TROUT LK   LGT SNOW  28  28 100 W17G29    29.08  WCI  16
PICKLE LAKE    FLURRIES  30  25  80 W15G24    29.26R WCI  19
DRYDEN         CLOUDY    30  28  93 W10       29.38R WCI  21
KENORA         MOCLDY    28  27  93 SW8       29.41R WCI  20
$$
                *** MANITOBA***

CITY           SKY/WX    TMP DP  RH WIND       PRES   REMARKS
BRANDON        MOCLDY    27  21  80 W14       29.50R WCI  15
DAUPHIN        CLEAR     28  21  74 W21G26    29.44R WCI  15
ISLAND LAKE    NOT AVBL
PILOT MOUND      N/A     30  27  86 W6          N/A  WCI  24
THE PAS        FLURRIES  28  21  74 NW15G23   29.34R WCI  17
THOMPSON       FLURRIES  16   9  73 W14G24    29.21R WCI   1
WINNIPEG       MOCLDY    32  25  74 W12       29.46S WCI  23
LYNN LAKE      LGT SNOW  10   7  85 NW16G23   29.28R WCI  -7
CHURCHILL      LGT SNOW   9   7  92 NE23      29.16R BLWGSNOWWCI -12
GILLAM         LGT SNOW   9   5  85 W18G24    29.11R WCI -10
$$
                ***SASKATCHEWAN***

CITY           SKY/WX    TMP DP  RH WIND       PRES   REMARKS
ESTEVAN        MOCLDY    32  23  69 W14G20    29.63R WCI  22
KINDERSLEY     PTCLDY    27  18  69 W16       29.71R WCI  14
LLOYDMINSTER   MOCLDY    27  18  69 NW16G23   29.67R WCI  14
PRINCE ALBERT  MOCLDY    28  18  64 W16       29.52R WCI  17
REGINA         PTCLDY    28  19  69 W15       29.62R WCI  17
YORKTON        CLEAR     25  18  74 W13       29.49R WCI  13
N. BATTLEFORD  MOCLDY    28  18  64 NW22G31   29.65R WCI  15
LA RONGE       FLURRIES  10   1  67 NW17G28   29.54R WCI  -7
SASKATOON      PTCLDY    28  18  64 W18G25    29.61R WCI  16
SWIFT CURRENT  PTCLDY    25  18  74 W20       29.70R WCI  11
$$
NOTE: THESE ARE AUTOMATED STATIONS WITH LIMITED QUALITY CONTROL
      "FAIR" INDICATES FEW OR NO CLOUDS BELOW 12,000 FEET WITH NO
      SIGNIFICANT WEATHER AND/OR OBSTRUCTIONS TO VISIBILITY.
      SKY/WX - SKY CONDITION AND SIGNIFICANT WEATHER.
      TMP - AIR TEMPERATURE.    DP   - DEWPOINT TEMPERATURE.
      RH  - RELATIVE HUMIDITY.  PRES - PRESSURE.
      HX  - HEAT INDEX.         WCI  - WIND CHILL INDEX.
$




USA.gov is the U.S. government's official web portal to all federal, state and local government web resources and services.